Weather History for Klawock, AK

Change the Weather History Date:

Wednesday, January 18, 2012

  Actual Average Record
Temperature  
Mean Temperature 12 °F -  
Max Temperature 17 °F 37 °F 59 °F (2009)
Min Temperature 7 °F 29 °F 7 °F (2012)
Degree Days  
Heating Degree Days 53    
Moisture  
Dew Point 0 °F    
Average Humidity 63    
Maximum Humidity 84    
Minimum Humidity 52    
Precipitation  
Precipitation 0.00 in - - ()
Sea Level Pressure  
Sea Level Pressure 30.02 in    
Wind  
Wind Speed 11 mph (NNE)    
Max Wind Speed 18 mph    
Max Gust Speed 26 mph    
Visibility 10 miles    
Events      
Averages and records for this station are not official NWS values.
T = Trace of Precipitation, MM = Missing Value Source: NWS Daily Summary

Daily Weather History Graph

Daily Weather History Graph

Search for Another Location

Airport:

Trip Planner

Search our weather history database for the weather conditions in past years. The results will help you decide how hot, cold, wet, or windy it might be!

Date:

Astronomy

Jan. 18, 2012 Rise Set
Actual Time 8:07 AM AKST 3:57 PM AKST
Civil Twilight 7:24 AM AKST 4:41 PM AKST
Nautical Twilight 6:38 AM AKST 5:27 PM AKST
Astronomical Twilight 5:54 AM AKST 6:11 PM AKST
Moon 3:52 AM AKST (1/18) 11:34 AM AKST (1/18)
Length of Visible Light 9h 16m
Length of Day
7h 50m
Waning Crescent, 23% of the Moon is Illuminated
Jan 18
Waning Crescent
Jan 22
New
Jan 30
First Quarter
Feb 7
Full
Feb 14
Last Quarter

Hourly Weather History & Observations

Time (AKST) Temp. Windchill Dew Point Humidity Pressure Visibility Wind Dir Wind Speed Gust Speed Precip Events Conditions
12:53 AM 7.0 °F -9.1 °F -4.0 °F 61% 30.18 in 10.0 mi NE 12.7 mph 20.7 mph N/A   Clear
1:53 AM 8.1 °F -6.2 °F -4.0 °F 58% 30.18 in 10.0 mi NNE 10.4 mph - N/A   Clear
3:53 AM 8.1 °F -10.7 °F -4.0 °F 58% 30.12 in 10.0 mi NNE 18.4 mph 26.5 mph N/A   Clear
4:53 AM 9.0 °F -9.0 °F -4.0 °F 56% 30.11 in 10.0 mi NNE 17.3 mph 26.5 mph N/A   Clear
5:53 AM 8.1 °F -7.7 °F -2.0 °F 64% 30.09 in 10.0 mi NNE 12.7 mph 21.9 mph N/A   Clear
6:53 AM 9.0 °F -4.2 °F -4.0 °F 56% 30.07 in 10.0 mi NE 9.2 mph 20.7 mph N/A   Clear
7:53 AM 9.0 °F -8.5 °F -2.9 °F 59% 30.05 in 10.0 mi NNE 16.1 mph 21.9 mph N/A   Clear
8:53 AM 9.0 °F -7.9 °F -2.0 °F 61% 30.04 in 10.0 mi NNE 15.0 mph 24.2 mph N/A   Clear
9:53 AM 10.9 °F -5.4 °F -0.0 °F 61% 30.05 in 10.0 mi NNE 15.0 mph - N/A   Clear
10:53 AM 12.9 °F -1.6 °F -0.0 °F 56% 30.04 in 10.0 mi NE 12.7 mph - N/A   Clear
11:53 AM 15.1 °F 5.2 °F 1.0 °F 54% 30.04 in 10.0 mi NE 6.9 mph - N/A   Clear
12:53 PM 17.1 °F 7.6 °F 1.9 °F 52% 30.02 in 10.0 mi NNE 6.9 mph - N/A   Clear
1:53 PM 17.1 °F 5.8 °F 1.9 °F 52% 30.01 in 10.0 mi North 9.2 mph - N/A   Clear
2:53 PM 16.0 °F 7.4 °F 1.9 °F 54% 30.00 in 10.0 mi NE 5.8 mph - N/A   Clear
3:53 PM 14.0 °F 8.2 °F 1.0 °F 56% 29.99 in 10.0 mi NE 3.5 mph - N/A   Clear
4:53 PM 12.9 °F - 1.0 °F 59% 29.97 in 10.0 mi Calm Calm - N/A   Clear
5:53 PM 12.9 °F - 3.0 °F 65% 29.95 in 10.0 mi Calm Calm - N/A   Clear
6:53 PM 10.9 °F - 5.0 °F 77% 29.94 in 10.0 mi Calm Calm - N/A   Clear
7:53 PM 9.0 °F - 3.0 °F 77% 29.94 in 10.0 mi Calm Calm - N/A   Clear
8:53 PM 8.1 °F -3.2 °F 3.0 °F 80% 29.93 in 10.0 mi NE 6.9 mph - N/A   Clear
9:53 PM 10.0 °F 1.8 °F 1.9 °F 70% 29.92 in 10.0 mi NE 4.6 mph - N/A   Clear
10:53 PM 10.0 °F -3.7 °F 3.9 °F 76% 29.92 in 10.0 mi NNE 10.4 mph - N/A   Clear
11:53 PM 10.0 °F -1.9 °F 6.1 °F 84% 29.91 in 10.0 mi NNE 8.1 mph - N/A   Clear